702  
ASUS42 KRAH 210510  
RWRRAH  
NORTH CAROLINA WEATHER ROUNDUP  
NATIONAL WEATHER SERVICE RALEIGH NC  
100 AM EDT FRI SEP 21 2018  
 
NOTE: "FAIR" INDICATES FEW OR NO CLOUDS BELOW 12,000 FEET WITH NO  
SIGNIFICANT WEATHER AND/OR S TO VISIBILITY
.  
 
NCZ001-053-055-056-065-067-210600-  
WESTERN NORTH CAROLINA  
 
CITY SKY/WX TMP DP RH WIND PRES REMARKS
 
ASHEVILLE MOCLDY 70 67 90 SE5 30.25F  
JEFFERSON NOT AVBL  
MORGANTON MOCLDY 70 70 99 CALM 30.23S  
HICKORY CLOUDY 73 69 87 S3 30.20S  
RUTHERFORDTON NOT AVBL  
MOUNT AIRY MOCLDY 75 70 84 CALM 30.23S  
BOONE MOCLDY 63 63 100 CALM 30.30S FOG  

 
 
NCZ021-022-025-041-071-084-088-210600-  
CENTRAL NORTH CAROLINA  
 
CITY SKY/WX TMP DP RH WIND PRES REMARKS
 
CHARLOTTE MOCLDY 76 69 79 SE10 30.20R  
GREENSBORO MOCLDY 73 70 90 S10 30.20S  
WINSTON-SALEM FAIR 74 69 85 S6 30.21S  
RALEIGH-DURHAM MOCLDY 74 69 85 SE7 30.21S  
FORT BRAGG FAIR 74 70 87 SE5 30.19S  
FAYETTEVILLE FAIR 74 69 85 E6 30.19S  
BURLINGTON FAIR 74 69 85 SE5 30.19S  
LAURINBURG FAIR 73 71 93 SE3 30.20  

 
 
NCZ011-015-027-028-043-044-047-080-103-210600-  
NORTHEASTERN NORTH CAROLINA  
 
CITY SKY/WX TMP DP RH WIND PRES REMARKS
 
ROCKY MT-WILSO FAIR 69 66 90 CALM 30.23R  
GREENVILLE FAIR 68 64 88 CALM 30.23S  
WASHINGTON FAIR 66 64 93 CALM 30.23R  
ELIZABETH CITY FAIR 71 67 87 NE7 30.22S  
MANTEO NOT AVBL  
CAPE HATTERAS FAIR 74 65 73 NE5 30.18F  

 
 
NCZ078-087-090-091-093-098-101-210600-  
SOUTHEASTERN NORTH CAROLINA  
 
CITY SKY/WX TMP DP RH WIND PRES REMARKS
 
LUMBERTON NOT AVBL  
GOLDSBORO FAIR 71 68 90 CALM 30.20R  
KINSTON FAIR 71 66 85 E3 30.22S  
KENANSVILLE FAIR 68 66 94 CALM 30.21S FOG  
NEW BERN FAIR 68 67 96 NE3 30.21F  
CHERRY POINT NOT AVBL  
BEAUFORT NOT AVBL  
JACKSONVILLE FAIR 72 67 84 NE5 30.19F  
WILMINGTON FAIR 73 66 78 E5 30.19S  

 
 
 
 
CLICK HERE TO GO TO PREVIOUS BULLETINS.

The Nexlab NC Page Main Text Page